Weather History for KMHV - March, 2014

Change the Weather History Date:

Saturday, March 1, 2014

  Actual Average Record
Temperature  
Mean Temperature 47 °F -  
Max Temperature 53 °F 60 °F 82 °F (1967)
Min Temperature 41 °F 37 °F -5 °F (1966)
Degree Days  
Heating Degree Days 18    
Moisture  
Dew Point 41 °F    
Average Humidity 81    
Maximum Humidity 100    
Minimum Humidity 58    
Precipitation  
Precipitation 0.05 in - - ()
Sea Level Pressure  
Sea Level Pressure 29.82 in    
Wind  
Wind Speed 7 mph (SSW)    
Max Wind Speed 17 mph    
Max Gust Speed 17 mph    
Visibility 9 miles    
Events      
Averages and records for this station are not official NWS values.
T = Trace of Precipitation, MM = Missing Value Source: NWS Daily Summary

Daily Weather History Graph

Daily Weather History Graph

Search for Another Location

Airport or City:

Trip Planner

Search our weather history database for the weather conditions in past years. The results will help you decide how hot, cold, wet, or windy it might be!

Date:

Astronomy

Mar. 01, 2014 Rise Set
Actual Time 6:21 AM PST 5:48 PM PST
Civil Twilight 5:56 AM PST 6:13 PM PST
Nautical Twilight 5:27 AM PST 6:43 PM PST
Astronomical Twilight 4:57 AM PST 7:12 PM PST
Moon 6:20 AM PST (3/1) 6:37 PM PST (3/1)
Length of Visible Light 12h 17m
Length of Day
11h 26m
New Moon, 0% of the Moon is Illuminated
Mar 1
New Moon
Mar 8
First Quarter
Mar 16
Full
Mar 23
Last Quarter
Mar 30
New

Hourly Weather History & Observations

Time (PST) Temp. Windchill Dew Point Humidity Pressure Visibility Wind Dir Wind Speed Gust Speed Precip Events Conditions
12:15 AM 44.6 °F 40.2 °F 41.0 °F 87% 29.72 in 10.0 mi SSW 8.1 mph - N/A   Overcast
12:35 AM 44.6 °F 40.7 °F 41.0 °F 87% 29.72 in 10.0 mi SSW 6.9 mph - N/A   Mostly Cloudy
12:55 AM 44.6 °F 39.2 °F 41.0 °F 87% 29.71 in 10.0 mi South 10.4 mph - N/A   Partly Cloudy
1:15 AM 44.6 °F 39.2 °F 41.0 °F 87% 29.72 in 10.0 mi South 10.4 mph - N/A   Partly Cloudy
1:35 AM 44.6 °F 39.2 °F 41.0 °F 87% 29.72 in 10.0 mi SW 10.4 mph - N/A   Partly Cloudy
1:55 AM 44.6 °F 40.7 °F 41.0 °F 87% 29.73 in 10.0 mi SW 6.9 mph - N/A   Mostly Cloudy
2:15 AM 44.6 °F 42.2 °F 41.0 °F 87% 29.73 in 10.0 mi West 4.6 mph - N/A   Overcast
2:35 AM 44.6 °F 40.7 °F 41.0 °F 87% 29.72 in 10.0 mi SSW 6.9 mph - N/A   Overcast
2:55 AM 44.6 °F 42.2 °F 41.0 °F 87% 29.72 in 6.0 mi SW 4.6 mph - N/A   Overcast
3:15 AM 44.6 °F - 41.0 °F 87% 29.72 in 10.0 mi Calm Calm - N/A   Mostly Cloudy
3:35 AM 44.6 °F 43.1 °F 41.0 °F 87% 29.72 in 10.0 mi WNW 3.5 mph - N/A   Scattered Clouds
3:55 AM 44.6 °F - 41.0 °F 87% 29.72 in 10.0 mi Calm Calm - N/A   Mostly Cloudy
4:15 AM 44.6 °F 39.7 °F 41.0 °F 87% 29.73 in 10.0 mi SSW 9.2 mph - N/A   Mostly Cloudy
4:35 AM 44.6 °F 42.2 °F 41.0 °F 87% 29.73 in 10.0 mi WSW 4.6 mph - N/A   Overcast
4:55 AM 44.6 °F 42.2 °F 41.0 °F 87% 29.74 in 5.0 mi SSW 4.6 mph - 0.01 in   Overcast
5:15 AM 44.6 °F 42.2 °F 42.8 °F 93% 29.75 in 5.0 mi SW 4.6 mph - 0.02 in   Mostly Cloudy
5:35 AM 44.6 °F - 42.8 °F 93% 29.75 in 10.0 mi Calm Calm - 0.02 in   Overcast
5:55 AM 44.6 °F - 42.8 °F 93% 29.76 in 5.0 mi Calm Calm - 0.03 in   Overcast
6:15 AM 44.6 °F - 42.8 °F 93% 29.76 in 10.0 mi Calm Calm - N/A   Overcast
6:35 AM 44.6 °F - 42.8 °F 93% 29.77 in 7.0 mi Calm Calm - N/A   Overcast
6:55 AM 44.6 °F - 42.8 °F 93% 29.77 in 10.0 mi Calm Calm - N/A   Overcast
7:15 AM 44.6 °F 38.4 °F 41.0 °F 87% 29.77 in 5.0 mi South 12.7 mph - N/A   Mostly Cloudy
7:35 AM 46.4 °F 41.5 °F 41.0 °F 81% 29.78 in 4.0 mi South 10.4 mph - 0.01 in   Overcast
7:55 AM 46.4 °F 40.7 °F 41.0 °F 81% 29.79 in 4.0 mi SSW 12.7 mph - 0.01 in   Mostly Cloudy
8:15 AM 46.4 °F 41.1 °F 41.0 °F 81% 29.80 in 6.0 mi SSW 11.5 mph 17.3 mph N/A   Unknown
8:35 AM 46.4 °F 40.7 °F 41.0 °F 81% 29.80 in 5.0 mi SW 12.7 mph 17.3 mph N/A   Overcast
8:55 AM 46.4 °F 41.5 °F 41.0 °F 81% 29.80 in 10.0 mi SW 10.4 mph - N/A   Overcast
9:15 AM 46.4 °F 41.5 °F 41.0 °F 81% 29.81 in 10.0 mi SW 10.4 mph 17.3 mph N/A   Overcast
9:35 AM 46.4 °F 41.1 °F 41.0 °F 81% 29.82 in 10.0 mi SW 11.5 mph - N/A   Mostly Cloudy
9:55 AM 48.2 °F - 41.0 °F 76% 29.82 in 10.0 mi SSW 10.4 mph - N/A   Mostly Cloudy
10:15 AM 48.2 °F - 41.0 °F 76% 29.83 in 10.0 mi SSW 6.9 mph - N/A   Overcast
10:35 AM 50.0 °F - 41.0 °F 71% 29.83 in 10.0 mi SSE 6.9 mph - N/A   Overcast
10:55 AM 50.0 °F - 41.0 °F 71% 29.83 in 10.0 mi South 8.1 mph - N/A   Mostly Cloudy
11:15 AM 50.0 °F - 41.0 °F 71% 29.83 in 10.0 mi SE 5.8 mph - N/A   Mostly Cloudy
11:35 AM 50.0 °F - 41.0 °F 71% 29.82 in 10.0 mi ESE 10.4 mph - N/A   Mostly Cloudy
11:55 AM 50.0 °F - 41.0 °F 71% 29.82 in 10.0 mi ESE 8.1 mph - N/A   Mostly Cloudy
12:15 PM 50.0 °F - 41.0 °F 71% 29.82 in 10.0 mi ESE 8.1 mph 16.1 mph N/A   Overcast
12:35 PM 51.8 °F - 41.0 °F 67% 29.81 in 10.0 mi SSE 12.7 mph - N/A   Overcast
12:55 PM 53.6 °F - 39.2 °F 58% 29.81 in 10.0 mi South 9.2 mph - N/A   Mostly Cloudy
1:15 PM 51.8 °F - 41.0 °F 67% 29.81 in 9.0 mi SSW 9.2 mph - N/A   Mostly Cloudy
1:35 PM 50.0 °F - 44.6 °F 82% 29.81 in 10.0 mi SW 17.3 mph - N/A   Mostly Cloudy
1:55 PM 48.2 °F - 44.6 °F 87% 29.81 in 10.0 mi WSW 10.4 mph - N/A   Mostly Cloudy
2:15 PM 50.0 °F - 42.8 °F 76% 29.81 in 10.0 mi West 5.8 mph - N/A   Mostly Cloudy
2:35 PM 50.0 °F - 41.0 °F 71% 29.81 in 10.0 mi SSW 10.4 mph - N/A   Scattered Clouds
2:55 PM 51.8 °F - 39.2 °F 62% 29.81 in 10.0 mi South 8.1 mph - N/A   Scattered Clouds
3:15 PM 51.8 °F - 41.0 °F 67% 29.81 in 10.0 mi SSW 6.9 mph - N/A   Mostly Cloudy
3:35 PM 51.8 °F - 39.2 °F 62% 29.82 in 10.0 mi SSE 11.5 mph - N/A   Mostly Cloudy
3:55 PM 50.0 °F - 39.2 °F 66% 29.82 in 10.0 mi South 6.9 mph - N/A   Mostly Cloudy
4:15 PM 50.0 °F - 39.2 °F 66% 29.82 in 10.0 mi South 13.8 mph - N/A   Mostly Cloudy
4:35 PM 50.0 °F - 41.0 °F 71% 29.83 in 9.0 mi SSW 9.2 mph - N/A   Mostly Cloudy
4:55 PM 50.0 °F - 41.0 °F 71% 29.84 in 10.0 mi South 5.8 mph - N/A   Mostly Cloudy
5:15 PM 48.2 °F - 41.0 °F 76% 29.84 in 10.0 mi SSW 9.2 mph - N/A   Overcast
5:35 PM 48.2 °F - 41.0 °F 76% 29.85 in 10.0 mi SW 6.9 mph - N/A   Overcast
5:55 PM 48.2 °F - 41.0 °F 76% 29.86 in 10.0 mi SW 5.8 mph - N/A   Overcast
6:15 PM 46.4 °F 42.9 °F 41.0 °F 81% 29.87 in 10.0 mi SW 6.9 mph - N/A   Mostly Cloudy
6:35 PM 46.4 °F 43.5 °F 41.0 °F 81% 29.87 in 10.0 mi SW 5.8 mph - N/A   Mostly Cloudy
6:55 PM 46.4 °F 41.5 °F 41.0 °F 81% 29.87 in 10.0 mi WSW 10.4 mph - N/A   Partly Cloudy
7:15 PM 46.4 °F 41.9 °F 41.0 °F 81% 29.88 in 10.0 mi WSW 9.2 mph - N/A   Mostly Cloudy
7:35 PM 46.4 °F 42.4 °F 39.2 °F 76% 29.89 in 10.0 mi West 8.1 mph - N/A   Overcast
7:55 PM 46.4 °F 45.2 °F 39.2 °F 76% 29.89 in 10.0 mi SW 3.5 mph - N/A   Overcast
8:15 PM 46.4 °F 42.4 °F 39.2 °F 76% 29.90 in 10.0 mi SW 8.1 mph - N/A   Scattered Clouds
8:35 PM 46.4 °F 43.5 °F 41.0 °F 81% 29.91 in 10.0 mi WSW 5.8 mph - N/A   Mostly Cloudy
8:55 PM 44.6 °F 40.7 °F 41.0 °F 87% 29.91 in 10.0 mi WSW 6.9 mph - N/A   Scattered Clouds
9:15 PM 44.6 °F - 41.0 °F 87% 29.92 in 10.0 mi Calm Calm - N/A   Clear
9:35 PM 42.8 °F - 39.2 °F 87% 29.91 in 10.0 mi Calm Calm - N/A   Clear
9:55 PM 41.0 °F - 41.0 °F 100% 29.91 in 10.0 mi Calm Calm - N/A   Clear
10:15 PM 41.0 °F - 41.0 °F 100% 29.92 in 10.0 mi Calm Calm - N/A   Clear
10:35 PM 41.0 °F 39.0 °F 39.2 °F 93% 29.93 in 10.0 mi West 3.5 mph - N/A   Mostly Cloudy
10:55 PM 41.0 °F 39.0 °F 41.0 °F 100% 29.94 in 10.0 mi West 3.5 mph - N/A   Mostly Cloudy
11:15 PM 42.8 °F - 41.0 °F 93% 29.94 in 10.0 mi Calm Calm - N/A   Overcast
11:35 PM 42.8 °F - 41.0 °F 93% 29.94 in 10.0 mi Calm Calm - N/A   Overcast
11:55 PM 44.6 °F - 41.0 °F 87% 29.94 in 10.0 mi Calm Calm - N/A   Overcast